Weather History for Norwood, MA

Change the Weather History Date:

Wednesday, February 6, 2013

  Actual Average Record
Temperature  
Mean Temperature 32 °F -  
Max Temperature 39 °F 36 °F 52 °F (2012)
Min Temperature 25 °F 17 °F -6 °F (2009)
Degree Days  
Heating Degree Days 33    
Moisture  
Dew Point 19 °F    
Average Humidity 67    
Maximum Humidity 93    
Minimum Humidity 31    
Precipitation  
Precipitation 0.00 in - - ()
Sea Level Pressure  
Sea Level Pressure 30.03 in    
Wind  
Wind Speed 4 mph (WNW)    
Max Wind Speed 16 mph    
Max Gust Speed 25 mph    
Visibility 8 miles    
Events Snow    
Averages and records for this station are not official NWS values.
T = Trace of Precipitation, MM = Missing Value Source: NWS Daily Summary

Daily Weather History Graph

Daily Weather History Graph

Search for Another Location

Airport:

Trip Planner

Search our weather history database for the weather conditions in past years. The results will help you decide how hot, cold, wet, or windy it might be!

Date:

Astronomy

Feb. 06, 2013 Rise Set
Actual Time 6:52 AM EST 5:06 PM EST
Civil Twilight 6:22 AM EST 5:35 PM EST
Nautical Twilight 5:49 AM EST 6:08 PM EST
Astronomical Twilight 5:16 AM EST 6:41 PM EST
Moon 3:34 AM EST (2/6) 1:18 PM EST (2/6)
Length of Visible Light 11h 12m
Length of Day
10h 13m
Waning Crescent, 17% of the Moon is Illuminated
Feb 6
Waning Crescent
Feb 10
New
Feb 17
First Quarter
Feb 25
Full
Mar 4
Last Quarter

Hourly Weather History & Observations

Time (EST) Temp. Windchill Dew Point Humidity Pressure Visibility Wind Dir Wind Speed Gust Speed Precip Events Conditions
12:53 AM 26.1 °F 21.9 °F 24.1 °F 92% 29.94 in 4.0 mi NW 3.5 mph - 0.00 in   Overcast
1:31 AM 26.6 °F - 24.8 °F 93% 29.93 in 2.5 mi Calm Calm - 0.00 in Snow Light Snow
1:39 AM 26.6 °F - 24.8 °F 93% 29.94 in 3.0 mi Calm Calm - 0.00 in Snow Light Snow
2:09 AM 26.6 °F - 24.8 °F 93% 29.94 in 2.5 mi Calm Calm - 0.00 in Snow Light Snow
2:53 AM 26.1 °F - 24.1 °F 92% 29.94 in 2.5 mi Calm Calm - 0.00 in Snow Light Snow
3:12 AM 26.6 °F - 24.8 °F 93% 29.92 in 2.5 mi Calm Calm - 0.00 in Snow Light Snow
3:19 AM 26.6 °F - 24.8 °F 93% 29.92 in 3.0 mi Calm Calm - 0.00 in Snow Light Snow
3:53 AM 26.1 °F - 24.1 °F 92% 29.93 in 4.0 mi Calm Calm - 0.00 in Snow Light Snow
4:53 AM 26.1 °F - 24.1 °F 92% 29.94 in 7.0 mi Calm Calm - 0.00 in   Overcast
5:53 AM 26.1 °F - 24.1 °F 92% 29.95 in 7.0 mi Calm Calm - N/A   Overcast
6:53 AM 26.1 °F - 24.1 °F 92% 29.97 in 8.0 mi Calm Calm - N/A   Overcast
7:53 AM 25.0 °F 20.7 °F 21.9 °F 88% 29.99 in 7.0 mi NW 3.5 mph - N/A   Overcast
8:53 AM 27.0 °F 23.0 °F 24.1 °F 89% 30.01 in 6.0 mi WSW 3.5 mph - N/A   Scattered Clouds
9:53 AM 32.0 °F 25.6 °F 25.0 °F 75% 30.01 in 10.0 mi West 6.9 mph - N/A   Clear
10:53 AM 36.0 °F 29.6 °F 25.0 °F 64% 30.00 in 10.0 mi West 8.1 mph - N/A   Clear
11:53 AM 37.9 °F 31.5 °F 19.9 °F 48% 29.99 in 10.0 mi West 9.2 mph 16.1 mph N/A   Partly Cloudy
12:53 PM 39.9 °F 32.1 °F 21.0 °F 47% 29.98 in 10.0 mi West 13.8 mph 18.4 mph N/A   Scattered Clouds
1:53 PM 37.9 °F 29.2 °F 18.0 °F 45% 30.01 in 10.0 mi WNW 15.0 mph 25.3 mph N/A   Mostly Cloudy
2:53 PM 37.0 °F 27.7 °F 19.0 °F 48% 30.02 in 10.0 mi West 16.1 mph 24.2 mph N/A   Mostly Cloudy
3:53 PM 37.0 °F 29.8 °F 19.0 °F 48% 30.04 in 10.0 mi West 10.4 mph 21.9 mph N/A   Clear
4:53 PM 35.1 °F 29.3 °F 17.1 °F 48% 30.07 in 10.0 mi WNW 6.9 mph - N/A   Clear
5:53 PM 33.1 °F 26.1 °F 15.1 °F 48% 30.11 in 10.0 mi West 8.1 mph - N/A   Clear
6:53 PM 33.1 °F 26.1 °F 9.0 °F 37% 30.15 in 10.0 mi West 8.1 mph - N/A   Clear
7:53 PM 32.0 °F 23.6 °F 7.0 °F 35% 30.19 in 10.0 mi WNW 10.4 mph 23.0 mph N/A   Clear
8:53 PM 30.0 °F 21.7 °F 5.0 °F 35% 30.21 in 10.0 mi WNW 9.2 mph 18.4 mph N/A   Clear
9:53 PM 28.0 °F 20.0 °F 3.0 °F 34% 30.25 in 10.0 mi WNW 8.1 mph - N/A   Clear
10:53 PM 28.0 °F 18.6 °F 1.0 °F 31% 30.28 in 10.0 mi WNW 10.4 mph - N/A   Clear
11:53 PM 27.0 °F 18.7 °F 1.9 °F 34% 30.29 in 10.0 mi West 8.1 mph - N/A   Clear